[[{"header":{"parameterUnit":"m.s-1","parameterCategory":1,"la1":30.2991,"la2":30.254,"lo1":-89.0895,"lo2":-89.0444,"dy":0.0017,"dx":0.0017,"nx":28,"ny":28,"refTime":"2024-05-10T09:00:00:Z","depth":0,"parameterNumber":2,"parameterNumberName":"U-component_of_WINDS"},"data":[0,0,0,0,0,0,0,0,0,0,0,0,0,0,0,0,0,0,0,0,0,0,0,0,0,0,0,0,0,0,0,0,0,0,0,0,0,0,0,0,0,0,0,0,0,0,0,0,0,0,0,0,0,0,0,0,0,0,0.575,0.5751,0,0.5765,0.5765,0.5765,0.5784,0.5784,0.5784,0.5785,0.5799,0.5799,0.5799,0,0,0,0,0,0,0,0,0,0,0,0,0,0.5739,0.5739,0.575,0.5751,0.5751,0.5765,0.5765,0.5765,0.5784,0.5784,0.5784,0.5785,0.5799,0.5799,0.5799,0,0,0,0,0,0,0,0,0,0,0,0,0,0.5748,0.5739,0.575,0.5762,0.5763,0.5765,0.5765,0.5765,0.5784,0.5784,0.5785,0.5785,0.5799,0.5799,0.5799,0.579,0,0,0.5799,0.5799,0,0,0,0,0,0,0,0,0.5747,0.5748,0.576,0.5761,0.5762,0.5773,0.5766,0.5774,0.5784,0.5776,0.5785,0.5785,0.579,0.5791,0.5792,0.5791,0.5792,0.5799,0.5799,0.5799,0.5799,0,0,0,0,0,0,0,0.5747,0.5748,0.5756,0.576,0.5761,0.5766,0.5768,0.5768,0.578,0.5776,0.5778,0.5779,0.579,0.5792,0.5793,0.5792,0.5799,0.5799,0.5799,0.5799,0.5786,0.5785,0,0,0,0,0,0,0.5744,0.5747,0.5756,0.5757,0.5756,0.5766,0.5768,0.5769,0.578,0.5782,0.5779,0.578,0.5792,0.5793,0.5793,0.5784,0.5799,0.58,0.58,0.5786,0.5786,0.5785,0,0,0,0,0,0,0.5744,0.5745,0.5755,0.5752,0.5754,0.5766,0.5767,0.5769,0.5771,0.5782,0.5784,0.5778,0.5792,0.5793,0.5791,0.5785,0.58,0.58,0.5787,0.5786,0.5785,0.5766,0,0,0,0,0,0,0.5744,0.5745,0.5741,0.5752,0.5754,0.5752,0.5766,0.5769,0.5771,0.5773,0.5782,0.5784,0.5792,0.5791,0.5791,0.5786,0.58,0.5787,0.5786,0.5786,0.5768,0.5765,0.5763,0,0,0,0,0,0.5743,0.5735,0.5741,0.5742,0.575,0.5752,0.5753,0.5763,0.577,0.5767,0.5775,0.5784,0.5786,0.5791,0.5791,0.5785,0.5788,0.5787,0.5786,0.5769,0.5766,0.5763,0,0,0,0,0,0,0.5723,0.5737,0.5743,0.5739,0.5744,0.5755,0.5751,0.576,0.5763,0.5765,0.5777,0.5779,0.5776,0.5781,0.5786,0.5778,0.5788,0.5787,0.5775,0.5772,0.577,0.5768,0.58,0,0,0,0,0,0.5718,0.5718,0.5731,0.5725,0.5728,0.5739,0.574,0.5748,0.5754,0.5756,0.5764,0.5769,0.5771,0.5772,0.5775,0.5769,0.5771,0.5765,0.5763,0.5761,0.576,0.5758,0.5755,0.5782,0.5782,0.5782,0,0,0.5707,0.5715,0.5714,0.5721,0.5726,0.5727,0.5741,0.574,0.5741,0.5756,0.5755,0.5761,0.5768,0.5764,0.5763,0.5768,0.5753,0.576,0.5758,0.5758,0.5756,0.5754,0.5752,0.5781,0.5781,0.5781,0,0,0.5688,0.5694,0.569,0.5696,0.5704,0.5712,0.5711,0.5721,0.5726,0.5725,0.5737,0.5738,0.5741,0.5746,0.5749,0.5733,0.5742,0.5734,0.5722,0.5719,0.5717,0.5715,0.571,0.5708,0.5733,0.5733,0.5733,0,0.5673,0.5675,0.5687,0.5686,0.5689,0.5704,0.5701,0.5705,0.5714,0.5715,0.5721,0.5727,0.5732,0.573,0.5727,0.5729,0.5728,0.5732,0.5717,0.5715,0.5713,0.5708,0.5706,0.5732,0.5732,0.5732,0.5732,0,0.5656,0.5657,0.5653,0.5662,0.5664,0.5662,0.5674,0.5676,0.5684,0.5691,0.5691,0.5699,0.5703,0.5704,0.5711,0.5703,0.5706,0.5714,0.5724,0.571,0.5705,0.5703,0.573,0.5731,0.5731,0.5731,0,0,0.5622,0.5639,0.5637,0.5642,0.5653,0.5653,0.5653,0.5658,0.5659,0.5665,0.5664,0.5668,0.5676,0.5679,0.5687,0.5686,0.5673,0.5694,0.5694,0.5689,0.5664,0.5657,0.5655,0.5679,0.5679,0.5679,0.5664,0,0.5604,0.5603,0.5616,0.5611,0.5612,0.5628,0.5627,0.5634,0.5642,0.5644,0.5652,0.5654,0.5665,0.5667,0.5666,0.5675,0.5668,0.5676,0.5679,0.5679,0.5675,0.5652,0.5645,0.563,0.5662,0.5662,0.5661,0,0.5583,0.5588,0.5584,0.5596,0.5597,0.5596,0.5602,0.5605,0.5613,0.5619,0.5624,0.5634,0.5634,0.5645,0.5646,0.5651,0.5653,0.5658,0.5657,0.5657,0.5668,0.565,0.5625,0.5623,0.5659,0.5659,0.5659,0,0.5558,0.5564,0.5562,0.5566,0.558,0.5579,0.5585,0.5594,0.5597,0.5603,0.5605,0.5611,0.5614,0.5618,0.563,0.5637,0.5629,0.5641,0.5634,0.5634,0.563,0.563,0.5604,0.5634,0.5634,0.5634,0.5634,0,0.5535,0.5532,0.5551,0.555,0.5547,0.5562,0.5559,0.5567,0.5575,0.5576,0.559,0.5591,0.5607,0.561,0.5619,0.5619,0.562,0.5625,0.5627,0.5623,0.5622,0.5623,0.5624,0.5633,0.5633,0.5633,0.5633,0,0.5506,0.5519,0.5518,0.5533,0.5536,0.5533,0.5546,0.5546,0.5555,0.5556,0.5557,0.5572,0.5576,0.5589,0.5596,0.5602,0.5598,0.5604,0.5595,0.5597,0.5589,0.5589,0.5562,0.5559,0.5591,0.5591,0.559,0,0.549,0.5488,0.5503,0.5504,0.551,0.5513,0.5516,0.5531,0.5534,0.5545,0.5543,0.5549,0.5554,0.5559,0.5571,0.5577,0.5581,0.5572,0.5582,0.5578,0.558,0.558,0.558,0.5569,0.5568,0.5568,0.5568,0,0.546,0.5467,0.5471,0.5478,0.5482,0.5488,0.5495,0.5496,0.5513,0.5516,0.552,0.5524,0.5532,0.5537,0.5545,0.5552,0.5562,0.5565,0.5563,0.5558,0.5553,0.5555,0.5588,0.5564,0.5565,0.5565,0.5565,0.5565,0.5437,0.5436,0.5446,0.5451,0.5458,0.5464,0.5465,0.5475,0.548,0.5487,0.5497,0.55,0.551,0.5522,0.5528,0.5532,0.5537,0.5535,0.5534,0.5533,0.5531,0.5554,0.5533,0.5533,0.5533,0.5533,0.5534,0,0.5407,0.5415,0.5419,0.5429,0.5433,0.5444,0.5453,0.5455,0.5458,0.5467,0.5472,0.5478,0.5483,0.5496,0.5503,0.5503,0.5508,0.5504,0.5504,0.5505,0.5526,0.5526,0.55,0.55,0.55,0.55,0.55,0.55,0.5392,0.5391,0.54,0.5403,0.5411,0.5415,0.5419,0.5426,0.5433,0.5439,0.5444,0.5452,0.5463,0.5471,0.5477,0.5481,0.5482,0.5476,0.5481,0.55,0.5503,0.5506,0.5507,0.5477,0.5477,0.546,0.546,0.546]},{"header":{"parameterUnit":"m.s-1","parameterCategory":1,"la1":30.2991,"la2":30.254,"lo1":-89.0895,"lo2":-89.0444,"dy":0.0017,"dx":0.0017,"nx":28,"ny":28,"refTime":"2024-05-10T09:00:00:Z","depth":0,"parameterNumber":3,"parameterNumberName":"V-component_of_WINDS"},"data":[0,0,0,0,0,0,0,0,0,0,0,0,0,0,0,0,0,0,0,0,0,0,0,0,0,0,0,0,0,0,0,0,0,0,0,0,0,0,0,0,0,0,0,0,0,0,0,0,0,0,0,0,0,0,0,0,0,0,-6.3627,-6.3628,0,-6.3704,-6.3705,-6.3706,-6.3607,-6.3603,-6.36,-6.3596,-6.3669,-6.3674,-6.3679,0,0,0,0,0,0,0,0,0,0,0,0,0,-6.3387,-6.3392,-6.3627,-6.3628,-6.3629,-6.3704,-6.3705,-6.3706,-6.3607,-6.3603,-6.3599,-6.3595,-6.3667,-6.3674,-6.368,0,0,0,0,0,0,0,0,0,0,0,0,0,-6.3481,-6.3394,-6.3627,-6.3589,-6.3586,-6.3704,-6.3705,-6.3706,-6.3608,-6.3603,-6.3597,-6.3592,-6.3665,-6.3673,-6.3681,-6.3838,0,0,-6.3705,-6.3708,0,0,0,0,0,0,0,0,-6.3475,-6.3489,-6.3593,-6.3591,-6.3589,-6.364,-6.3647,-6.375,-6.361,-6.36,-6.3596,-6.359,-6.3664,-6.3671,-6.3697,-6.3841,-6.3844,-6.3706,-6.3711,-6.3714,-6.3716,0,0,0,0,0,0,0,-6.3469,-6.3486,-6.3657,-6.3595,-6.3592,-6.3566,-6.3573,-6.3666,-6.3661,-6.36,-6.3593,-6.3604,-6.3661,-6.369,-6.3698,-6.3845,-6.3706,-6.3713,-6.3717,-6.3721,-6.4121,-6.4127,0,0,0,0,0,0,-6.3468,-6.3481,-6.3655,-6.3659,-6.3518,-6.3574,-6.3583,-6.3629,-6.3659,-6.3659,-6.3609,-6.3599,-6.3679,-6.3689,-6.3701,-6.3886,-6.3714,-6.3721,-6.3726,-6.4115,-6.4122,-6.4129,0,0,0,0,0,0,-6.3463,-6.3484,-6.3651,-6.3568,-6.3588,-6.3584,-6.3637,-6.3634,-6.3662,-6.3666,-6.3664,-6.3639,-6.3675,-6.3689,-6.3805,-6.3887,-6.3725,-6.3732,-6.4108,-6.4117,-6.4126,-6.4259,0,0,0,0,0,0,-6.3457,-6.3483,-6.3544,-6.3571,-6.3593,-6.3757,-6.3642,-6.3639,-6.3677,-6.3665,-6.3694,-6.3694,-6.3672,-6.3793,-6.3813,-6.3895,-6.3738,-6.4101,-6.4112,-6.4123,-6.4247,-6.4271,-6.4292,0,0,0,0,0,-6.3449,-6.3577,-6.3548,-6.3569,-6.3669,-6.3762,-6.3774,-6.3748,-6.3684,-6.3744,-6.3747,-6.3693,-6.3875,-6.3806,-6.3827,-6.3913,-6.4095,-6.4109,-6.4122,-6.4237,-6.4267,-6.4291,0,0,0,0,0,0,-6.3558,-6.358,-6.3548,-6.3689,-6.3725,-6.3745,-6.382,-6.378,-6.3833,-6.3819,-6.3783,-6.379,-6.3914,-6.3925,-6.3847,-6.4066,-6.3974,-6.3993,-6.4055,-6.4083,-6.4105,-6.41,-6.3745,0,0,0,0,0,-6.3599,-6.3675,-6.3689,-6.3812,-6.3832,-6.3823,-6.3863,-6.384,-6.3874,-6.3888,-6.3899,-6.3932,-6.3997,-6.404,-6.41,-6.4248,-6.4253,-6.4318,-6.434,-6.4359,-6.4374,-6.4453,-6.4482,-6.4172,-6.4172,-6.4172,0,0,-6.3684,-6.3705,-6.3754,-6.3835,-6.3859,-6.3937,-6.3836,-6.3922,-6.3979,-6.39,-6.4011,-6.402,-6.4055,-6.4188,-6.4246,-6.42,-6.4461,-6.4375,-6.439,-6.4396,-6.447,-6.4499,-6.4526,-6.4181,-6.418,-6.4178,0,0,-6.3878,-6.3902,-6.4008,-6.4035,-6.4075,-6.4069,-6.4094,-6.4121,-6.4125,-6.4236,-6.4179,-6.4244,-6.4357,-6.4384,-6.4413,-6.4619,-6.4571,-6.4639,-6.4756,-6.4833,-6.4858,-6.4879,-6.4953,-6.498,-6.4655,-6.4655,-6.4656,0,-6.3977,-6.4094,-6.4066,-6.4157,-6.4194,-6.4129,-6.4235,-6.4262,-6.4319,-6.4345,-6.4293,-6.4434,-6.4452,-6.4591,-6.4641,-6.4667,-6.4694,-6.4636,-6.4857,-6.4878,-6.4898,-6.4967,-6.4995,-6.4663,-6.4663,-6.4662,-6.4661,0,-6.4214,-6.4296,-6.4376,-6.4435,-6.4481,-6.4579,-6.4564,-6.4613,-6.4587,-6.4586,-6.4699,-6.472,-6.4783,-6.4814,-6.4788,-6.4949,-6.4919,-6.4863,-6.477,-6.4936,-6.5001,-6.5027,-6.4675,-6.4672,-6.467,-6.4668,0,0,-6.4478,-6.4523,-6.4553,-6.4579,-6.4619,-6.468,-6.4775,-6.4839,-6.4882,-6.4923,-6.5,-6.5098,-6.5046,-6.5079,-6.5056,-6.5124,-6.5286,-6.5059,-6.5059,-6.51,-6.5464,-6.5506,-6.5538,-6.5255,-6.5259,-6.5263,-6.5461,0,-6.4673,-6.4839,-6.4818,-6.4976,-6.5051,-6.4991,-6.5073,-6.5105,-6.5107,-6.5169,-6.5169,-6.5239,-6.5166,-6.5185,-6.525,-6.5253,-6.5358,-6.5238,-6.5325,-6.5328,-6.5318,-6.5571,-6.5616,-6.5802,-6.5486,-6.549,-6.5494,0,-6.4921,-6.4975,-6.5142,-6.5171,-6.5202,-6.5276,-6.5334,-6.5394,-6.5429,-6.5425,-6.5463,-6.5428,-6.552,-6.5426,-6.5553,-6.5472,-6.5506,-6.5513,-6.5519,-6.5526,-6.5421,-6.5585,-6.586,-6.5888,-6.5533,-6.553,-6.5527,0,-6.5098,-6.5211,-6.5326,-6.535,-6.5387,-6.5441,-6.5458,-6.5488,-6.5529,-6.5578,-6.5603,-6.5662,-6.5694,-6.574,-6.572,-6.5654,-6.5851,-6.5755,-6.5849,-6.585,-6.5893,-6.5891,-6.6178,-6.5916,-6.5915,-6.5915,-6.5914,0,-6.5317,-6.5422,-6.5406,-6.5477,-6.5592,-6.5565,-6.5679,-6.5688,-6.5716,-6.5786,-6.5736,-6.5803,-6.5773,-6.5837,-6.5822,-6.593,-6.5944,-6.5943,-6.5937,-6.5947,-6.5948,-6.5969,-6.5956,-6.5922,-6.5921,-6.5919,-6.5918,0,-6.5533,-6.5527,-6.5648,-6.5675,-6.5683,-6.5767,-6.5788,-6.5853,-6.5851,-6.5941,-6.596,-6.5956,-6.6029,-6.6015,-6.6094,-6.6084,-6.6218,-6.6197,-6.6208,-6.6202,-6.6297,-6.6289,-6.6608,-6.6648,-6.6361,-6.6364,-6.6366,0,-6.5674,-6.5753,-6.5789,-6.5834,-6.5856,-6.5928,-6.597,-6.5946,-6.5991,-6.6038,-6.6097,-6.6166,-6.622,-6.6339,-6.6342,-6.6402,-6.6382,-6.649,-6.639,-6.6398,-6.6383,-6.6379,-6.6387,-6.6509,-6.6512,-6.6515,-6.6517,0,-6.5924,-6.5917,-6.598,-6.6044,-6.6095,-6.6143,-6.6185,-6.6224,-6.6204,-6.6257,-6.6332,-6.6374,-6.6456,-6.6525,-6.6581,-6.6596,-6.6554,-6.6549,-6.6574,-6.6584,-6.6587,-6.6587,-6.6261,-6.6541,-6.6539,-6.6537,-6.6536,-6.6535,-6.6106,-6.6174,-6.6211,-6.6283,-6.6313,-6.6354,-6.6417,-6.6425,-6.6488,-6.6555,-6.6536,-6.6622,-6.6654,-6.6726,-6.6748,-6.6813,-6.6772,-6.6808,-6.6818,-6.6827,-6.6839,-6.6578,-6.6823,-6.6822,-6.6821,-6.6821,-6.682,0,-6.6353,-6.6374,-6.6441,-6.6504,-6.6561,-6.6518,-6.6563,-6.6612,-6.6689,-6.6724,-6.6779,-6.6865,-6.6932,-6.6941,-6.7004,-6.7054,-6.7036,-6.7071,-6.7067,-6.7071,-6.6871,-6.6844,-6.7085,-6.7085,-6.7085,-6.7085,-6.7085,-6.7085,-6.6489,-6.6602,-6.66,-6.6728,-6.6747,-6.6832,-6.6862,-6.6899,-6.6927,-6.7027,-6.7083,-6.7089,-6.7114,-6.7178,-6.7237,-6.7237,-6.7262,-6.7306,-6.7299,-6.7112,-6.7085,-6.706,-6.7034,-6.7311,-6.7312,-6.7493,-6.7495,-6.7496]}]]